Tracking 18852 objects as of 24-Nov-2017
HD Live streaming from Space Station
objects crossing your sky now

PICOSAT 4

Track PICOSAT 4 now!
10-day predictions
PICOSAT 4 is classified as:


NORAD ID: 26092
Int'l Code: 2000-004K
Perigee: 730.1 km
Apogee: 779.1 km
Inclination: 100.2 °
Period: 99.8 minutes
Semi major axis: 7125 km
RCS: 0.039 m2 (small)
Launch date: January 27, 2000
Source: United States (US)
Launch site: AIR FORCE WESTERN TEST RANGE (AFWTR)
aabbcc
Your satellite tracking list
Your tracking list is empty




NASA's NSSDC Master Catalog

Two Line Element Set (TLE):
1 26092U 00004K   17327.26480500 +.00000192 +00000-0 +74334-4 0  9995
2 26092 100.1836 046.7744 0034428 085.0912 275.4201 14.43342267934641
Source of the keplerian elements: AFSPC